(142414) = 2002 SS31

Discovered at Haleakala on 2002-09-28 by NEAT.

Orbit

Orbit type: Main Belt

Note: WebGL enabled browser required.

epoch2024-03-31.0
epoch JD2460400.5
perihelion date2023-07-16.02319
perihelion JD2460141.52319
argument of perihelion (°)327.67310
ascending node (°)107.17291
inclination (°)6.54758
eccentricity0.2440013
perihelion distance (AU)1.9252254
Tisserand w.r.t. Jupiter3.4
ΔV w.r.t. Earth (km/sec)8.9
semimajor axis (AU)2.5465987
mean anomaly (°)62.80930
mean daily motion (°/day)0.24252870
aphelion distance (AU)3.168
period (years)4.06
P-vector [x]0.25808178
P-vector [y]0.90888842
P-vector [z]0.32759067
Q-vector [x]-0.95996087
Q-vector [y]0.20300801
Q-vector [z]0.19303595
absolute magnitude15.97
phase slope0.15
uncertainty0
referenceMPEC 2024-F50
observations used927
oppositions16
arc length (days)10723
first opposition used1994
last opposition used2024
residual rms (arc-secs)0.76
perturbers coarse indicatorM-v
perturbers precise indicator003Ek
first observation date used1994-11-09.0
last observation date used2024-03-19.0
computer nameMPCLINUX
JD of orbit computation2456937.497552
perihelion JD uncertainty (days)1.6848E-04
argument of perihelion uncertainty (°)1.2865E-04
ascending node uncertainty (°)1.2350E-04
inclination uncertainty (°)4.2697E-06
eccentricity uncertainty 5.8581E-08
perihelion distance uncertainty (AU)1.5538E-07
Minimum Orbit Intersection Distances (in AU)
for orbit epoch: 2460400.5, reference: E2024-G38
Mercury1.62006
Venus1.20659
Earth0.94449
Mars0.37397
Jupiter2.11756
Saturn6.87373
Uranus15.7507
Neptune27.3059

Observations

947 total observations over interval: 1994 11 09.28696 – 2024 03 19.333529
These data are available for download (format description).

Date (UT) J2000 RA J2000 Dec Magn Location Ref
1994 11 09.28696 02 10 33.88 +00 33 39.4   691 – Steward Observatory, Kitt Peak-Spacewatch MPS 106221
1994 11 09.32230 02 10 31.99 +00 33 37.5   691 – Steward Observatory, Kitt Peak-Spacewatch MPS 106221
1994 11 09.34242 02 10 30.95 +00 33 36.5 18.5 V 691 – Steward Observatory, Kitt Peak-Spacewatch MPS 106221
1998 09 19.377501 01 55 02.779 -00 26 18.64 19.21 V 645 – Apache Point-Sloan Digital Sky Survey MPS 103842
1998 09 19.380973 01 55 02.705 -00 26 19.88 20.04   645 – Apache Point-Sloan Digital Sky Survey MPS 103842
1998 09 24.36864 01 53 06.75 -00 56 54.0 18.8 R 699 – Lowell Observatory-LONEOS MPS 103842
1998 09 24.39347 01 53 06.03 -00 57 02.9   699 – Lowell Observatory-LONEOS MPS 103842
1998 09 24.41831 01 53 05.19 -00 57 12.8   699 – Lowell Observatory-LONEOS MPS 103842
1998 09 25.359501 01 52 38.564 -01 03 10.45 18.94 V 645 – Apache Point-Sloan Digital Sky Survey MPS 103842
1998 09 25.362973 01 52 38.455 -01 03 11.83 19.77   645 – Apache Point-Sloan Digital Sky Survey MPS 103842
1998 10 17.33260 01 36 41.20 -03 16 51.1 18.4 R 699 – Lowell Observatory-LONEOS MPS 103842
1998 10 17.35745 01 36 39.83 -03 16 58.2   699 – Lowell Observatory-LONEOS MPS 103842
1998 10 17.38230 01 36 38.56 -03 17 05.4   699 – Lowell Observatory-LONEOS MPS 103842
2000 05 04.314750 13 04 38.182 +03 31 58.44 20.32 V 645 – Apache Point-Sloan Digital Sky Survey MPS 103842
2000 05 04.318222 13 04 38.046 +03 31 58.63 21.22   645 – Apache Point-Sloan Digital Sky Survey MPS 103842
2002 09 28.46074 00 58 24.18 -06 37 19.3 19.1   608 – Haleakala-AMOS MPS 63726
2002 09 28.47154 00 58 23.65 -06 37 23.7 19.4   608 – Haleakala-AMOS MPS 63726
2002 09 28.48223 00 58 23.08 -06 37 28.3 19.5   608 – Haleakala-AMOS MPS 63726
2002 10 01.49995 00 55 53.31 -06 58 33.2 19.6   608 – Haleakala-AMOS MPS 63726
2002 10 01.51075 00 55 52.74 -06 58 37.5 19.5   608 – Haleakala-AMOS MPS 63726
2002 10 01.52170 00 55 52.17 -06 58 41.3 19.4   608 – Haleakala-AMOS MPS 63726
2002 10 04.24576 00 53 32.42 -07 16 53.5 18.9   704 – Lincoln Laboratory ETS, New Mexico MPS 63727
2002 10 04.26082 00 53 31.59 -07 16 59.9 18.6   704 – Lincoln Laboratory ETS, New Mexico MPS 63727
2002 10 04.27611 00 53 30.78 -07 17 06.3 18.8   704 – Lincoln Laboratory ETS, New Mexico MPS 63727
2002 10 04.29100 00 53 29.98 -07 17 11.4 18.5   704 – Lincoln Laboratory ETS, New Mexico MPS 63727
2002 10 04.30644 00 53 29.13 -07 17 17.7 19.0   704 – Lincoln Laboratory ETS, New Mexico MPS 63727
2002 10 06.25112 00 51 47.33 -07 29 37.8 18.1   704 – Lincoln Laboratory ETS, New Mexico MPS 63727
2002 10 06.26583 00 51 46.52 -07 29 44.5 18.6   704 – Lincoln Laboratory ETS, New Mexico MPS 63727
2002 10 06.28052 00 51 45.66 -07 29 48.6 19.3   704 – Lincoln Laboratory ETS, New Mexico MPS 63727
2002 10 06.29503 00 51 44.92 -07 29 55.3 19.1   704 – Lincoln Laboratory ETS, New Mexico MPS 63727
2002 10 06.30991 00 51 44.01 -07 30 00.5 18.6   704 – Lincoln Laboratory ETS, New Mexico MPS 63727
2002 10 25.10367 00 36 11.25 -08 48 30.9 19.2   644 – Palomar Mountain/NEAT MPS 67993
2002 10 25.12472 00 36 10.35 -08 48 33.1 19.7   644 – Palomar Mountain/NEAT MPS 67993
2002 10 25.14574 00 36 09.41 -08 48 35.4 18.9   644 – Palomar Mountain/NEAT MPS 67993
2002 10 29.17175 00 33 30.95 -08 53 32.9 19.0   704 – Lincoln Laboratory ETS, New Mexico MPS 65965
2002 10 29.18930 00 33 30.19 -08 53 34.2 19.2   704 – Lincoln Laboratory ETS, New Mexico MPS 65965
2002 10 29.20664 00 33 29.52 -08 53 34.0 18.8   704 – Lincoln Laboratory ETS, New Mexico MPS 65965
2002 10 29.22389 00 33 28.79 -08 53 33.9 19.0   704 – Lincoln Laboratory ETS, New Mexico MPS 65965
2002 10 29.24117 00 33 28.18 -08 53 34.9 18.9   704 – Lincoln Laboratory ETS, New Mexico MPS 65965
2002 10 30.17397 00 32 54.98 -08 54 04.8 19.1   704 – Lincoln Laboratory ETS, New Mexico MPS 65965
2002 10 30.20872 00 32 53.69 -08 54 05.1 19.3   704 – Lincoln Laboratory ETS, New Mexico MPS 65965
2002 10 30.22610 00 32 53.01 -08 54 05.4 18.8   704 – Lincoln Laboratory ETS, New Mexico MPS 65965
2002 11 02.36632 00 31 11.12 -08 53 48.2 19.5   608 – Haleakala-AMOS MPS 65965
2002 11 02.37693 00 31 10.77 -08 53 47.8 19.7   608 – Haleakala-AMOS MPS 65965
2002 11 02.38750 00 31 10.44 -08 53 47.3 19.6   608 – Haleakala-AMOS MPS 65965
2002 11 05.08067 00 29 56.64 -08 51 17.6 18.9   644 – Palomar Mountain/NEAT MPS 65965
2002 11 05.10157 00 29 56.09 -08 51 16.0 19.0   644 – Palomar Mountain/NEAT MPS 65965
2002 11 05.12253 00 29 55.56 -08 51 15.4 18.7   644 – Palomar Mountain/NEAT MPS 65965
2002 11 07.18025 00 29 07.44 -08 47 55.9 18.6 R 699 – Lowell Observatory-LONEOS MPS 65965
2002 11 07.19426 00 29 07.06 -08 47 53.2   699 – Lowell Observatory-LONEOS MPS 65965
2002 11 07.20833 00 29 06.73 -08 47 52.7   699 – Lowell Observatory-LONEOS MPS 65965
2002 11 07.22237 00 29 06.44 -08 47 51.8   699 – Lowell Observatory-LONEOS MPS 65965
2004 03 15.33920 13 19 26.96 +02 28 56.0 21.5 R 683 – Goodricke-Pigott Observatory, Tucson MPS 103098
2004 03 15.35261 13 19 26.26 +02 29 00.1 21.1 R 683 – Goodricke-Pigott Observatory, Tucson MPS 103098
2004 03 15.36600 13 19 25.88 +02 29 07.3 21.0 R 683 – Goodricke-Pigott Observatory, Tucson MPS 103098
2004 03 23.33749 13 13 04.42 +03 21 32.4 19.7   704 – Lincoln Laboratory ETS, New Mexico MPS 103098
2004 03 23.34792 13 13 03.77 +03 21 37.0 20.4   704 – Lincoln Laboratory ETS, New Mexico MPS 103098
2004 03 23.35848 13 13 03.24 +03 21 41.2 20.3   704 – Lincoln Laboratory ETS, New Mexico MPS 103098
2004 03 23.36915 13 13 02.74 +03 21 45.5 20.1   704 – Lincoln Laboratory ETS, New Mexico MPS 103098
2004 03 23.37970 13 13 02.16 +03 21 49.1 20.2   704 – Lincoln Laboratory ETS, New Mexico MPS 103098
2004 03 26.41269 13 10 24.19 +03 41 16.5 19.6 V 691 – Steward Observatory, Kitt Peak-Spacewatch MPS 103098
2004 03 26.44637 13 10 22.36 +03 41 29.5 19.8 V 691 – Steward Observatory, Kitt Peak-Spacewatch MPS 103098
2004 03 26.47783 13 10 20.64 +03 41 41.4 20.5 V 691 – Steward Observatory, Kitt Peak-Spacewatch MPS 103098
2004 03 28.32711 13 08 42.36 +03 53 16.4 19.3   704 – Lincoln Laboratory ETS, New Mexico MPS 103098
2004 03 28.33747 13 08 41.78 +03 53 20.3 19.5   704 – Lincoln Laboratory ETS, New Mexico MPS 103098
2004 03 28.34780 13 08 41.19 +03 53 23.7 19.6   704 – Lincoln Laboratory ETS, New Mexico MPS 103098
2004 03 28.35798 13 08 40.61 +03 53 27.8 19.6   704 – Lincoln Laboratory ETS, New Mexico MPS 103098
2004 03 29.38910 13 07 45.06 +03 59 47.6 19.9   704 – Lincoln Laboratory ETS, New Mexico MPS 103098
2004 03 29.39979 13 07 44.44 +03 59 51.4 19.7   704 – Lincoln Laboratory ETS, New Mexico MPS 103098
2004 03 29.41057 13 07 43.80 +03 59 55.5 19.5   704 – Lincoln Laboratory ETS, New Mexico MPS 103099
2004 03 29.42115 13 07 43.19 +03 59 58.8 19.5   704 – Lincoln Laboratory ETS, New Mexico MPS 103099
2006 09 17.36883 00 20 12.19 -09 49 11.4 18.4 R 699 – Lowell Observatory-LONEOS MPS 179216
2006 09 17.38710 00 20 11.27 -09 49 19.3   699 – Lowell Observatory-LONEOS MPS 179216
2006 09 17.40536 00 20 10.65 -09 49 26.4   699 – Lowell Observatory-LONEOS MPS 179216
2006 09 19.31928 00 18 36.86 -10 04 15.4 18.4 V 703 – Catalina Sky Survey MPS 179216
2006 09 19.33250 00 18 36.14 -10 04 22.4 18.9 V 703 – Catalina Sky Survey MPS 179216
2006 09 19.34573 00 18 35.42 -10 04 28.0 18.6 V 703 – Catalina Sky Survey MPS 179216
2006 09 19.35893 00 18 34.77 -10 04 34.1 18.7 V 703 – Catalina Sky Survey MPS 179216
2006 09 25.33924 00 13 27.44 -10 48 42.1 18.7 V 703 – Catalina Sky Survey MPS 180901
2006 09 25.34573 00 13 27.12 -10 48 44.9 18.9 V 703 – Catalina Sky Survey MPS 180901
2006 09 25.35222 00 13 26.72 -10 48 48.2 18.8 V 703 – Catalina Sky Survey MPS 180901
2006 09 25.35872 00 13 26.40 -10 48 50.4 18.6 V 703 – Catalina Sky Survey MPS 180901
2006 10 19.17543 23 54 19.54 -12 38 20.0 19.0 V 703 – Catalina Sky Survey MPS 182850
2006 10 19.18534 23 54 19.08 -12 38 20.8 19.4 V 703 – Catalina Sky Survey MPS 182850
2006 10 19.19528 23 54 18.75 -12 38 21.9 19.2 V 703 – Catalina Sky Survey MPS 182850
2006 10 19.20522 23 54 18.36 -12 38 22.5 20.2 V 703 – Catalina Sky Survey MPS 182850
2006 10 23.15532 23 52 04.54 -12 42 38.3 18.9 R 644 – Palomar Mountain/NEAT MPS 183984
2006 10 23.17603 23 52 03.87 -12 42 38.8 18.8 R 644 – Palomar Mountain/NEAT MPS 183984
